SPMPV EPKK-EPKK

Flight info

Callsign SPMPV
Flight time 0h 34m
Altitude 2000
Route DCT
Aircraft C172/L-SDGRY/S

Departure

Time 2026-05-07 14:57
Airport Kraków John Paul II International Airport (EPKK)

Arrival

Time 2026-05-07 15:31
Airport Kraków John Paul II International Airport (EPKK)
Time Latitude Longitude Altitude Speed Heading
2026-05-07 14:37 50.07716 19.80255 785 ft 0 kts 347°
2026-05-07 14:51 50.07756 19.80240 785 ft 8 kts 333°
2026-05-07 14:51 50.07751 19.80145 785 ft 12 kts 257°
2026-05-07 14:51 50.07733 19.80018 785 ft 12 kts 257°
2026-05-07 14:51 50.07717 19.79903 785 ft 10 kts 258°
2026-05-07 14:52 50.07703 19.79803 785 ft 9 kts 257°
2026-05-07 14:52 50.07691 19.79713 785 ft 9 kts 258°
2026-05-07 14:52 50.07677 19.79616 785 ft 9 kts 257°
2026-05-07 14:52 50.07663 19.79513 785 ft 10 kts 258°
2026-05-07 14:53 50.07648 19.79402 785 ft 11 kts 256°
2026-05-07 14:53 50.07631 19.79284 785 ft 11 kts 257°
2026-05-07 14:53 50.07617 19.79162 785 ft 12 kts 279°
2026-05-07 14:53 50.07681 19.79114 785 ft 10 kts 347°
2026-05-07 14:54 50.07742 19.79092 785 ft 8 kts 347°
2026-05-07 14:54 50.07760 19.79086 785 ft 0 kts 347°
2026-05-07 14:55 50.07765 19.79084 785 ft 4 kts 347°
2026-05-07 14:56 50.07821 19.79052 786 ft 14 kts 308°
2026-05-07 14:56 50.07833 19.78908 787 ft 20 kts 256°
2026-05-07 14:56 50.07767 19.78432 791 ft 66 kts 257°
2026-05-07 14:56 50.07656 19.77691 946 ft 74 kts 255°
2026-05-07 14:57 50.07534 19.76895 1174 ft 75 kts 253°
2026-05-07 14:57 50.07436 19.76055 1392 ft 82 kts 282°
2026-05-07 14:57 50.07850 19.75525 1674 ft 85 kts 356°
2026-05-07 14:57 50.08431 19.75416 1948 ft 83 kts 345°
2026-05-07 14:58 50.09067 19.75356 2009 ft 104 kts
2026-05-07 14:58 50.09719 19.76031 1912 ft 125 kts 58°
2026-05-07 14:58 50.09978 19.77257 1960 ft 119 kts 77°
2026-05-07 14:58 50.10139 19.78531 1892 ft 116 kts 81°
2026-05-07 14:59 50.10300 19.79762 1887 ft 115 kts 80°
2026-05-07 14:59 50.10483 19.80960 1884 ft 114 kts 77°
2026-05-07 14:59 50.10637 19.82110 1882 ft 104 kts 81°
2026-05-07 14:59 50.10567 19.83144 1833 ft 98 kts 94°
2026-05-07 15:00 50.10983 19.83782 1790 ft 91 kts 347°
2026-05-07 15:00 50.11340 19.83203 1846 ft 70 kts 264°
2026-05-07 15:00 50.11009 19.82684 1788 ft 79 kts 189°
2026-05-07 15:00 50.10544 19.83171 1790 ft 100 kts 117°
2026-05-07 15:01 50.10535 19.84252 1744 ft 101 kts 82°
2026-05-07 15:01 50.10674 19.85251 1788 ft 90 kts 80°
2026-05-07 15:01 50.10545 19.86140 1706 ft 87 kts 141°
2026-05-07 15:01 50.09983 19.86440 1622 ft 86 kts 172°
2026-05-07 15:02 50.09416 19.86588 1531 ft 81 kts 172°
2026-05-07 15:02 50.09080 19.86505 1432 ft 78 kts 231°
2026-05-07 15:02 50.08787 19.85627 1343 ft 64 kts 248°
2026-05-07 15:02 50.08670 19.84966 1296 ft 66 kts 257°
2026-05-07 15:03 50.08610 19.84501 1280 ft 64 kts 257°
2026-05-07 15:03 50.08489 19.83613 1234 ft 63 kts 258°
2026-05-07 15:03 50.08426 19.83151 1222 ft 66 kts 253°
2026-05-07 15:03 50.08289 19.82195 1177 ft 70 kts 257°
2026-05-07 15:04 50.08180 19.81436 1074 ft 72 kts 257°
2026-05-07 15:04 50.08120 19.80924 1000 ft 69 kts 257°
2026-05-07 15:04 50.08017 19.80210 860 ft 67 kts 253°
2026-05-07 15:04 50.07918 19.79511 795 ft 65 kts 255°
2026-05-07 15:05 50.07825 19.78842 793 ft 63 kts 252°
2026-05-07 15:05 50.07729 19.78156 795 ft 65 kts 252°
2026-05-07 15:05 50.07629 19.77446 836 ft 73 kts 253°
2026-05-07 15:05 50.07513 19.76659 1038 ft 75 kts 253°
2026-05-07 15:06 50.07392 19.75845 1255 ft 80 kts 257°
2026-05-07 15:06 50.07402 19.75011 1484 ft 83 kts 301°
2026-05-07 15:06 50.07898 19.74645 1726 ft 83 kts 344°
2026-05-07 15:06 50.08485 19.74506 1870 ft 90 kts 347°
2026-05-07 15:07 50.09120 19.74422 1938 ft 95 kts
2026-05-07 15:07 50.09625 19.75156 1958 ft 110 kts 71°
2026-05-07 15:07 50.09783 19.76393 1906 ft 119 kts 81°
2026-05-07 15:07 50.09955 19.77614 1944 ft 115 kts 81°
2026-05-07 15:08 50.10084 19.78866 1890 ft 118 kts 82°
2026-05-07 15:08 50.10236 19.80107 1916 ft 116 kts 80°
2026-05-07 15:08 50.10357 19.81363 1918 ft 116 kts 82°
2026-05-07 15:08 50.10526 19.82520 2002 ft 107 kts 78°
2026-05-07 15:09 50.10659 19.83657 1975 ft 106 kts 101°
2026-05-07 15:09 50.10234 19.84520 1783 ft 100 kts 164°
2026-05-07 15:09 50.09596 19.84867 1697 ft 94 kts 172°
2026-05-07 15:09 50.08952 19.85013 1573 ft 89 kts 194°
2026-05-07 15:10 50.08551 19.84380 1414 ft 89 kts 258°
2026-05-07 15:10 50.08449 19.83394 1231 ft 96 kts 259°
2026-05-07 15:10 50.08312 19.82384 1143 ft 97 kts 258°
2026-05-07 15:10 50.08176 19.81353 1046 ft 98 kts 257°
2026-05-07 15:11 50.08028 19.80292 885 ft 101 kts 256°
2026-05-07 15:11 50.07884 19.79262 795 ft 94 kts 255°
2026-05-07 15:11 50.07749 19.78296 793 ft 91 kts 256°
2026-05-07 15:11 50.07616 19.77338 952 ft 78 kts 257°
2026-05-07 15:12 50.07502 19.76528 1208 ft 79 kts 255°
2026-05-07 15:12 50.07502 19.75705 1433 ft 81 kts 301°
2026-05-07 15:12 50.08024 19.75307 1649 ft 84 kts 346°
2026-05-07 15:12 50.08599 19.75158 1828 ft 85 kts 347°
2026-05-07 15:13 50.09192 19.75120 1852 ft 91 kts 19°
2026-05-07 15:13 50.09567 19.75927 1880 ft 99 kts 83°
2026-05-07 15:13 50.09668 19.77014 1915 ft 104 kts 75°
2026-05-07 15:13 50.09799 19.78133 1930 ft 108 kts 81°
2026-05-07 15:14 50.09928 19.79285 1961 ft 106 kts 76°
2026-05-07 15:14 50.10093 19.80414 1966 ft 110 kts 79°
2026-05-07 15:14 50.10252 19.81569 2023 ft 108 kts 81°
2026-05-07 15:14 50.10318 19.82729 1986 ft 102 kts 110°
2026-05-07 15:15 50.09873 19.83452 1857 ft 93 kts 173°
2026-05-07 15:15 50.09219 19.83676 1555 ft 98 kts 168°
2026-05-07 15:15 50.08582 19.83701 1350 ft 90 kts 216°
2026-05-07 15:15 50.08349 19.82834 1191 ft 88 kts 265°
2026-05-07 15:16 50.08249 19.81915 1090 ft 84 kts 256°
2026-05-07 15:16 50.08135 19.81038 987 ft 82 kts 257°
2026-05-07 15:16 50.08012 19.80178 870 ft 81 kts 255°
2026-05-07 15:16 50.07896 19.79353 791 ft 73 kts 255°
2026-05-07 15:17 50.07799 19.78676 814 ft 68 kts 254°
2026-05-07 15:17 50.07685 19.77962 974 ft 74 kts 256°
2026-05-07 15:17 50.07589 19.77118 1110 ft 86 kts 258°
2026-05-07 15:17 50.07464 19.76174 1324 ft 87 kts 257°
2026-05-07 15:18 50.07601 19.75321 1564 ft 90 kts 319°
2026-05-07 15:18 50.08202 19.75054 1794 ft 92 kts 348°
2026-05-07 15:18 50.08836 19.74918 1827 ft 91 kts 351°
2026-05-07 15:18 50.09405 19.75369 1800 ft 102 kts 58°
2026-05-07 15:19 50.09602 19.76399 1859 ft 100 kts 80°
2026-05-07 15:19 50.09755 19.77504 1836 ft 108 kts 69°
2026-05-07 15:19 50.10260 19.78324 1852 ft 105 kts 20°
2026-05-07 15:19 50.10938 19.78638 1897 ft 98 kts 351°
2026-05-07 15:20 50.11408 19.78068 1925 ft 85 kts 280°
2026-05-07 15:20 50.11334 19.77136 1884 ft 92 kts 258°
2026-05-07 15:20 50.11200 19.76142 1846 ft 95 kts 260°
2026-05-07 15:20 50.11273 19.75173 1890 ft 93 kts 304°
2026-05-07 15:21 50.11892 19.74768 1860 ft 109 kts
2026-05-07 15:21 50.12545 19.75368 1846 ft 116 kts 55°
2026-05-07 15:21 50.12768 19.76555 1888 ft 114 kts 83°
2026-05-07 15:21 50.12921 19.77780 1897 ft 116 kts 81°
2026-05-07 15:22 50.13085 19.79020 1916 ft 118 kts 81°
2026-05-07 15:22 50.12897 19.80144 1925 ft 112 kts 151°
2026-05-07 15:22 50.12211 19.80056 1815 ft 105 kts 217°
2026-05-07 15:22 50.11625 19.79385 1727 ft 101 kts 220°
2026-05-07 15:23 50.11242 19.78554 1755 ft 92 kts 256°
2026-05-07 15:23 50.11100 19.77598 1790 ft 90 kts 258°
2026-05-07 15:23 50.10980 19.76641 1837 ft 90 kts 259°
2026-05-07 15:23 50.10863 19.75682 1822 ft 91 kts 269°
2026-05-07 15:24 50.11192 19.74853 1818 ft 99 kts 327°
2026-05-07 15:24 50.11879 19.74879 1834 ft 107 kts 28°
2026-05-07 15:24 50.12275 19.75821 1815 ft 109 kts 83°
2026-05-07 15:24 50.12414 19.76994 1841 ft 107 kts 83°
2026-05-07 15:25 50.12524 19.78124 1863 ft 108 kts 85°
2026-05-07 15:25 50.12660 19.79272 1889 ft 105 kts 90°
2026-05-07 15:25 50.12331 19.80162 1901 ft 99 kts 164°
2026-05-07 15:25 50.11704 19.79919 1842 ft 100 kts 225°
2026-05-07 15:26 50.11360 19.79033 1840 ft 94 kts 259°
2026-05-07 15:26 50.11225 19.78063 1880 ft 91 kts 258°
2026-05-07 15:26 50.11098 19.77117 1908 ft 86 kts 257°
2026-05-07 15:26 50.10976 19.76230 1859 ft 86 kts 253°
2026-05-07 15:27 50.10529 19.75814 1849 ft 93 kts 165°
2026-05-07 15:27 50.09910 19.76143 1884 ft 92 kts 165°
2026-05-07 15:27 50.09556 19.76967 1870 ft 101 kts 90°
2026-05-07 15:27 50.09676 19.78023 1850 ft 99 kts 79°
2026-05-07 15:28 50.09807 19.79089 1865 ft 99 kts 79°
2026-05-07 15:28 50.09948 19.80151 1820 ft 104 kts 79°
2026-05-07 15:28 50.10114 19.81222 1823 ft 100 kts 77°
2026-05-07 15:28 50.10293 19.82228 1790 ft 92 kts 78°
2026-05-07 15:29 50.10228 19.83166 1632 ft 88 kts 133°
2026-05-07 15:29 50.09695 19.83539 1475 ft 83 kts 170°
2026-05-07 15:29 50.09155 19.83699 1395 ft 77 kts 173°
2026-05-07 15:29 50.08635 19.83761 1295 ft 72 kts 206°
2026-05-07 15:30 50.08400 19.83140 1206 ft 70 kts 262°
2026-05-07 15:30 50.08310 19.82384 1105 ft 72 kts 255°
2026-05-07 15:30 50.08216 19.81625 1018 ft 70 kts 255°
2026-05-07 15:30 50.08110 19.80890 946 ft 70 kts 257°
2026-05-07 15:31 50.08008 19.80144 856 ft 71 kts 255°
2026-05-07 15:31 50.07907 19.79428 784 ft 56 kts 259°
2026-05-07 15:31 50.07862 19.79111 785 ft 0 kts 258°
2026-05-07 15:31 50.07849 19.79017 785 ft 31 kts 258°
2026-05-07 15:32 50.07770 19.78437 802 ft 72 kts 257°
2026-05-07 15:32 50.07695 19.77635 987 ft 77 kts 260°
2026-05-07 15:32 50.07622 19.76781 1158 ft 86 kts 259°
2026-05-07 15:32 50.07380 19.76000 1411 ft 82 kts 208°
2026-05-07 15:33 50.06792 19.76083 1606 ft 88 kts 167°
2026-05-07 15:33 50.06223 19.76402 1800 ft 86 kts 168°
2026-05-07 15:33 50.05651 19.76712 1867 ft 87 kts 168°
2026-05-07 15:33 50.05232 19.77430 1857 ft 102 kts 102°
2026-05-07 15:34 50.05329 19.78555 1840 ft 107 kts 76°
2026-05-07 15:34 50.05518 19.79661 1851 ft 106 kts 77°
2026-05-07 15:34 50.05699 19.80781 1819 ft 109 kts 78°
2026-05-07 15:34 50.05880 19.81908 1802 ft 107 kts 77°
2026-05-07 15:35 50.06048 19.83027 1811 ft 106 kts 80°
2026-05-07 15:35 50.06198 19.84063 1800 ft 93 kts 73°
2026-05-07 15:35 50.06650 19.84720 1652 ft 91 kts
2026-05-07 15:35 50.07267 19.84602 1497 ft 87 kts 347°
2026-05-07 15:36 50.07837 19.84424 1368 ft 84 kts 348°
2026-05-07 15:36 50.08391 19.84146 1316 ft 84 kts 315°
2026-05-07 15:36 50.08443 19.83336 1221 ft 83 kts 256°
2026-05-07 15:36 50.08322 19.82454 1159 ft 84 kts 254°
2026-05-07 15:37 50.08211 19.81564 1079 ft 83 kts 253°
2026-05-07 15:37 50.08082 19.80666 928 ft 87 kts 257°
2026-05-07 15:37 50.07954 19.79766 830 ft 84 kts 256°
2026-05-07 15:37 50.07840 19.78928 789 ft 69 kts 259°
2026-05-07 15:38 50.07750 19.78209 879 ft 72 kts 252°
2026-05-07 15:38 50.07662 19.77384 1049 ft 80 kts 260°
2026-05-07 15:38 50.07532 19.76527 1272 ft 83 kts 252°
2026-05-07 15:38 50.07276 19.75751 1500 ft 82 kts 212°
2026-05-07 15:39 50.06723 19.75792 1755 ft 87 kts 166°
2026-05-07 15:39 50.06150 19.76138 1866 ft 89 kts 166°
2026-05-07 15:39 50.05628 19.76616 1916 ft 95 kts 126°
2026-05-07 15:39 50.05622 19.77660 1910 ft 103 kts 78°
2026-05-07 15:40 50.05782 19.78777 1918 ft 107 kts 78°
2026-05-07 15:40 50.05993 19.79894 1953 ft 108 kts 75°
2026-05-07 15:40 50.06177 19.81052 1918 ft 109 kts 77°
2026-05-07 15:40 50.06343 19.82189 1916 ft 107 kts 81°
2026-05-07 15:41 50.06501 19.83326 1872 ft 108 kts 76°
2026-05-07 15:41 50.06971 19.84117 1828 ft 97 kts 13°
2026-05-07 15:41 50.07605 19.84074 1740 ft 93 kts 348°
2026-05-07 15:41 50.08249 19.83859 1449 ft 92 kts 323°
2026-05-07 15:42 50.08386 19.82989 1180 ft 87 kts 260°
2026-05-07 15:42 50.08284 19.82094 1047 ft 81 kts 253°
2026-05-07 15:42 50.08163 19.81266 989 ft 78 kts 259°
2026-05-07 15:42 50.08048 19.80420 902 ft 81 kts 251°
2026-05-07 15:43 50.07926 19.79561 809 ft 81 kts 250°
2026-05-07 15:43 50.07815 19.78760 832 ft 76 kts 253°
2026-05-07 15:43 50.07704 19.77891 1011 ft 85 kts 257°
2026-05-07 15:43 50.07604 19.76963 1245 ft 88 kts 258°
2026-05-07 15:44 50.07362 19.76190 1544 ft 81 kts 210°
2026-05-07 15:44 50.06806 19.76346 1713 ft 94 kts 143°
2026-05-07 15:44 50.06251 19.76916 1871 ft 99 kts 153°
2026-05-07 15:44 50.05687 19.77532 1924 ft 99 kts 149°
2026-05-07 15:45 50.05160 19.78227 1941 ft 101 kts 142°
2026-05-07 15:45 50.04796 19.79157 1952 ft 104 kts 105°
2026-05-07 15:45 50.04984 19.80187 1971 ft 104 kts 40°
2026-05-07 15:45 50.05603 19.80107 1922 ft 96 kts 303°
2026-05-07 15:46 50.05461 19.78104 1911 ft 95 kts 260°
2026-05-07 15:46 50.05263 19.77127 1895 ft 95 kts 235°
2026-05-07 15:46 50.04684 19.76826 1927 ft 93 kts 167°
2026-05-07 15:47 50.04242 19.77551 1911 ft 100 kts 109°
2026-05-07 15:47 50.04374 19.78659 1830 ft 111 kts 72°
2026-05-07 15:47 50.04563 19.79808 1844 ft 109 kts 68°
2026-05-07 15:47 50.05137 19.80323 1897 ft 98 kts 347°
2026-05-07 15:48 50.05569 19.79689 1908 ft 90 kts 274°
2026-05-07 15:48 50.05476 19.78689 1863 ft 96 kts 257°
2026-05-07 15:48 50.05353 19.77675 1866 ft 94 kts 258°
2026-05-07 15:48 50.05083 19.76814 1912 ft 87 kts 213°
2026-05-07 15:49 50.04506 19.76899 1912 ft 95 kts 138°
2026-05-07 15:49 50.04519 19.77872 1877 ft 104 kts 38°
2026-05-07 15:49 50.05155 19.78474 1812 ft 108 kts 29°
2026-05-07 15:49 50.05658 19.79352 1748 ft 113 kts 71°
2026-05-07 15:50 50.05861 19.80503 1797 ft 109 kts 76°
2026-05-07 15:50 50.06047 19.81659 1803 ft 110 kts 77°
2026-05-07 15:50 50.06234 19.82805 1817 ft 107 kts 76°
2026-05-07 15:50 50.06552 19.83806 1754 ft 100 kts 37°
2026-05-07 15:51 50.07186 19.83982 1550 ft 94 kts 349°
2026-05-07 15:51 50.07784 19.83807 1411 ft 86 kts 346°
2026-05-07 15:51 50.08314 19.83469 1189 ft 80 kts 297°
2026-05-07 15:51 50.08344 19.82623 1076 ft 82 kts 256°
2026-05-07 15:52 50.08219 19.81723 1045 ft 84 kts 256°
2026-05-07 15:52 50.08101 19.80811 983 ft 90 kts 253°
2026-05-07 15:52 50.07968 19.79878 838 ft 87 kts 255°
2026-05-07 15:52 50.07855 19.79053 788 ft 68 kts 256°
2026-05-07 15:53 50.07754 19.78362 829 ft 73 kts 252°
2026-05-07 15:53 50.07655 19.77528 1020 ft 79 kts 255°
2026-05-07 15:53 50.07541 19.76659 1222 ft 86 kts 254°
2026-05-07 15:53 50.07338 19.75870 1524 ft 77 kts 217°
2026-05-07 15:54 50.06821 19.75862 1776 ft 81 kts 167°
2026-05-07 15:54 50.06278 19.76135 1836 ft 84 kts 172°
2026-05-07 15:54 50.05700 19.76414 1858 ft 90 kts 150°
2026-05-07 15:54 50.05447 19.77295 1877 ft 100 kts 84°
2026-05-07 15:55 50.05611 19.78352 1926 ft 101 kts 78°
2026-05-07 15:55 50.05783 19.79423 1955 ft 103 kts 78°
2026-05-07 15:55 50.05954 19.80531 1907 ft 107 kts 77°
2026-05-07 15:55 50.06121 19.81631 1877 ft 104 kts 77°
2026-05-07 15:56 50.06279 19.82677 1906 ft 97 kts 80°
2026-05-07 15:56 50.06375 19.83375 1900 ft 98 kts 80°
2026-05-07 15:56 50.06487 19.84410 1885 ft 96 kts 89°
2026-05-07 15:56 50.06536 19.85385 1971 ft 92 kts 83°
2026-05-07 15:57 50.06682 19.86352 1932 ft 92 kts 68°
2026-05-07 15:57 50.07134 19.86909 1829 ft 84 kts 357°
2026-05-07 15:57 50.07711 19.86713 1619 ft 85 kts 338°
2026-05-07 15:57 50.08269 19.86443 1501 ft 84 kts 337°
2026-05-07 15:58 50.08674 19.85934 1501 ft 75 kts 277°
2026-05-07 15:58 50.08706 19.85076 1417 ft 81 kts 260°
2026-05-07 15:58 50.08589 19.84243 1339 ft 80 kts 254°
2026-05-07 15:58 50.08483 19.83429 1309 ft 75 kts 255°
2026-05-07 15:59 50.08349 19.82621 1221 ft 78 kts 251°
2026-05-07 15:59 50.08237 19.81772 1111 ft 81 kts 258°
2026-05-07 15:59 50.08119 19.80917 990 ft 83 kts 254°
2026-05-07 15:59 50.07995 19.80038 837 ft 83 kts 252°
2026-05-07 16:00 50.07883 19.79235 786 ft 64 kts 256°
2026-05-07 16:00 50.07795 19.78531 860 ft 73 kts 254°
2026-05-07 16:00 50.07711 19.77728 1074 ft 77 kts 257°
2026-05-07 16:00 50.07631 19.76889 1286 ft 81 kts 258°
2026-05-07 16:01 50.07512 19.76052 1571 ft 76 kts 255°
2026-05-07 16:01 50.07370 19.75259 1826 ft 75 kts 256°
2026-05-07 16:01 50.07225 19.74482 2060 ft 74 kts 252°
2026-05-07 16:01 50.07096 19.73703 2276 ft 73 kts 251°
2026-05-07 16:02 50.06936 19.72934 2425 ft 76 kts 251°
2026-05-07 16:02 50.06785 19.72193 2661 ft 73 kts 224°
2026-05-07 16:02 50.06278 19.72214 2894 ft 79 kts 167°
2026-05-07 16:02 50.05761 19.72554 3085 ft 82 kts 166°
2026-05-07 16:03 50.05242 19.72913 3274 ft 82 kts 166°
2026-05-07 16:03 50.04718 19.73267 3448 ft 82 kts 166°
2026-05-07 16:03 50.04191 19.73622 3622 ft 83 kts 166°
2026-05-07 16:03 50.03661 19.73980 3801 ft 83 kts 166°
2026-05-07 16:04 50.03126 19.74337 3973 ft 84 kts 166°
2026-05-07 16:04 50.02586 19.74691 4145 ft 84 kts 166°
2026-05-07 16:04 50.02043 19.75047 4314 ft 85 kts 166°
2026-05-07 16:04 50.01499 19.75404 4491 ft 86 kts 161°
2026-05-07 16:05 50.01293 19.76264 4664 ft 97 kts 71°
2026-05-07 16:05 50.01456 19.77275 4857 ft 98 kts 76°
2026-05-07 16:05 50.01639 19.78307 4995 ft 104 kts 76°
2026-05-07 16:05 50.01837 19.79469 5000 ft 116 kts 76°
2026-05-07 16:06 50.02047 19.80713 5005 ft 122 kts 76°
2026-05-07 16:06 50.02263 19.81998 5005 ft 123 kts 76°
2026-05-07 16:06 50.02483 19.83292 5004 ft 125 kts 76°
2026-05-07 16:06 50.02708 19.84595 5006 ft 125 kts 76°
2026-05-07 16:07 50.02932 19.85903 5001 ft 126 kts 76°
2026-05-07 16:07 50.03157 19.87217 5000 ft 126 kts 76°
2026-05-07 16:07 50.03381 19.88535 4998 ft 126 kts 76°
2026-05-07 16:07 50.03604 19.89838 5001 ft 126 kts 77°
2026-05-07 16:08 50.03835 19.91178 4923 ft 132 kts 76°
2026-05-07 16:08 50.04074 19.92580 4805 ft 133 kts 77°
2026-05-07 16:08 50.04302 19.93935 4663 ft 126 kts 77°
2026-05-07 16:08 50.04525 19.95231 4528 ft 122 kts 77°
2026-05-07 16:09 50.04749 19.96498 4390 ft 120 kts 77°
2026-05-07 16:09 50.04972 19.97752 4264 ft 120 kts 76°
2026-05-07 16:09 50.05190 19.99001 4135 ft 119 kts 76°
2026-05-07 16:09 50.05677 19.99968 3987 ft 116 kts 16°
2026-05-07 16:10 50.06442 19.99938 3862 ft 110 kts 346°
2026-05-07 16:10 50.07197 19.99801 3743 ft 108 kts 346°
2026-05-07 16:10 50.07950 19.99657 3617 ft 110 kts 347°
2026-05-07 16:10 50.08710 19.99502 3499 ft 110 kts 346°
2026-05-07 16:11 50.09477 19.99357 3378 ft 112 kts 347°
2026-05-07 16:11 50.10190 19.98998 3230 ft 105 kts 308°
2026-05-07 16:11 50.10321 19.98006 3124 ft 94 kts 258°
2026-05-07 16:11 50.10242 19.96990 2994 ft 96 kts 261°
2026-05-07 16:12 50.10144 19.95945 2874 ft 99 kts 259°
2026-05-07 16:12 50.10024 19.94889 2740 ft 98 kts 258°
2026-05-07 16:12 50.09898 19.93849 2610 ft 97 kts 257°
2026-05-07 16:12 50.09766 19.92814 2486 ft 98 kts 256°
2026-05-07 16:13 50.09619 19.91773 2347 ft 99 kts 257°
2026-05-07 16:13 50.09477 19.90728 2216 ft 98 kts 256°
2026-05-07 16:13 50.09333 19.89687 2078 ft 97 kts 258°
2026-05-07 16:13 50.09184 19.88648 1934 ft 99 kts 256°
2026-05-07 16:14 50.09042 19.87597 1806 ft 100 kts 256°
2026-05-07 16:14 50.08894 19.86543 1682 ft 100 kts 258°
2026-05-07 16:14 50.08747 19.85491 1548 ft 97 kts 256°
2026-05-07 16:14 50.08606 19.84469 1401 ft 96 kts 257°
2026-05-07 16:15 50.08471 19.83496 1270 ft 86 kts 253°
2026-05-07 16:15 50.08365 19.82640 1140 ft 76 kts 255°
2026-05-07 16:15 50.08238 19.81839 1056 ft 79 kts 258°
2026-05-07 16:15 50.08123 19.80987 963 ft 83 kts 256°
2026-05-07 16:16 50.08002 19.80103 860 ft 84 kts 253°
2026-05-07 16:16 50.07880 19.79241 791 ft 73 kts 255°
2026-05-07 16:16 50.07785 19.78558 806 ft 69 kts 256°
2026-05-07 16:16 50.07664 19.77824 990 ft 70 kts 253°
2026-05-07 16:17 50.07556 19.77058 1167 ft 76 kts 261°
2026-05-07 16:17 50.07463 19.76187 1336 ft 85 kts 259°
2026-05-07 16:17 50.07630 19.75350 1586 ft 85 kts 323°
2026-05-07 16:17 50.08210 19.75143 1839 ft 84 kts 343°
2026-05-07 16:18 50.08808 19.74989 1887 ft 91 kts 348°
2026-05-07 16:18 50.09441 19.75172 1880 ft 101 kts 40°
2026-05-07 16:18 50.09711 19.76176 1875 ft 104 kts 81°
2026-05-07 16:18 50.09854 19.77274 1853 ft 106 kts 81°
2026-05-07 16:19 50.09998 19.78386 1871 ft 105 kts 77°
2026-05-07 16:19 50.10175 19.79486 1887 ft 108 kts 78°
2026-05-07 16:19 50.10342 19.80602 1895 ft 102 kts 80°
2026-05-07 16:19 50.10501 19.81603 1855 ft 88 kts 80°
2026-05-07 16:20 50.10542 19.82532 1717 ft 84 kts 120°
2026-05-07 16:20 50.10071 19.82983 1578 ft 82 kts 168°
2026-05-07 16:20 50.09533 19.83159 1465 ft 76 kts 171°
2026-05-07 16:20 50.09016 19.83303 1330 ft 75 kts 172°
2026-05-07 16:21 50.08543 19.83140 1217 ft 71 kts 214°
2026-05-07 16:21 50.08300 19.82482 1111 ft 78 kts 264°
2026-05-07 16:21 50.08210 19.81633 1051 ft 81 kts 257°
2026-05-07 16:21 50.08095 19.80759 960 ft 85 kts 254°
2026-05-07 16:22 50.07967 19.79859 829 ft 85 kts 253°
2026-05-07 16:22 50.07858 19.79051 786 ft 62 kts 257°
2026-05-07 16:22 50.07760 19.78366 865 ft 70 kts 253°
2026-05-07 16:22 50.07665 19.77588 1040 ft 75 kts 257°
2026-05-07 16:23 50.07555 19.76741 1193 ft 86 kts 256°
2026-05-07 16:23 50.07472 19.75843 1489 ft 80 kts 279°
2026-05-07 16:23 50.07864 19.75264 1706 ft 87 kts 347°
2026-05-07 16:23 50.08465 19.75111 1868 ft 91 kts 349°
2026-05-07 16:24 50.09121 19.75017 1869 ft 98 kts
2026-05-07 16:24 50.09633 19.75701 1904 ft 104 kts 68°
2026-05-07 16:24 50.09800 19.76794 1912 ft 105 kts 78°
2026-05-07 16:24 50.09980 19.77923 1929 ft 108 kts 79°
2026-05-07 16:25 50.10151 19.79097 1912 ft 114 kts 79°
2026-05-07 16:25 50.10317 19.80321 1899 ft 113 kts 82°
2026-05-07 16:25 50.10452 19.81403 1888 ft 93 kts 85°
2026-05-07 16:25 50.10550 19.82351 1785 ft 85 kts 94°
2026-05-07 16:26 50.10237 19.83022 1613 ft 80 kts 164°
2026-05-07 16:26 50.09707 19.83216 1463 ft 75 kts 171°
2026-05-07 16:26 50.09195 19.83343 1311 ft 75 kts 171°
2026-05-07 16:26 50.08857 19.83426 1219 ft 72 kts 169°
2026-05-07 16:27 50.08399 19.82929 1172 ft 69 kts 245°
2026-05-07 16:27 50.08286 19.82180 1105 ft 73 kts 257°
2026-05-07 16:27 50.08177 19.81379 1007 ft 77 kts 254°
2026-05-07 16:27 50.08066 19.80555 899 ft 78 kts 252°
2026-05-07 16:28 50.07948 19.79749 793 ft 72 kts 255°
2026-05-07 16:28 50.07872 19.79197 786 ft 35 kts 259°
2026-05-07 16:28 50.07776 19.79082 786 ft 16 kts 169°
2026-05-07 16:28 50.07676 19.79115 785 ft 13 kts 167°
2026-05-07 16:29 50.07618 19.79178 785 ft 10 kts 84°
2026-05-07 16:29 50.07630 19.79273 785 ft 8 kts 75°
2026-05-07 16:29 50.07640 19.79352 785 ft 7 kts 77°
2026-05-07 16:29 50.07652 19.79432 785 ft 8 kts 78°
2026-05-07 16:30 50.07665 19.79530 785 ft 10 kts 78°
2026-05-07 16:30 50.07681 19.79644 785 ft 11 kts 77°
2026-05-07 16:30 50.07699 19.79772 785 ft 13 kts 76°
2026-05-07 16:30 50.07676 19.79879 785 ft 11 kts 167°
2026-05-07 16:31 50.07609 19.79932 785 ft 12 kts 99°
2026-05-07 16:31 50.07624 19.80068 785 ft 13 kts 77°
2026-05-07 16:31 50.07644 19.80215 785 ft 14 kts 78°
2026-05-07 16:31 50.07677 19.80268 785 ft 8 kts 347°
2026-05-07 16:32 50.07719 19.80254 785 ft 0 kts 347°